User: anonymous   Login
Location: Bidwell Hollow
(37.7387°N, 90.1707°W)
Time: 01:48:24
(UTC+00:00)
Language:

Courier 1B - Orbit

View from above orbital plane
View from above orbital plane
View from above satellite
View from above satellite

Ground track
Ground track

The orbit is defined by the following mean orbital elements,

1 00058U          26133.56127824 +.00000000 +00000-0 +22563-4 0 00008
2 00058  28.3299 315.4312 0164942 281.0728  77.1309 13.46429237    09
Epoch (UTC): 13 May 2026 13:28:14
Eccentricity: 0.0164942
inclination: 28.3299°
perigee height: 962 km
apogee height: 1209 km
right ascension of ascending node: 315.4312°
argument of perigee: 281.0728°
revolutions per day: 13.46429237
mean anomaly at epoch: 77.1309°

The dashed part of the orbit path shows where the satellite is in the earth's shadow,  

DLR